| time (UTC) | temp F | wind direction | speed knots | gust knots | rain 1hr in | rain 24hr in | rain mn in | humidity % | barometer mb |
| 20260507185825 | 0 | 8 | 7.0 | 12.2 | 0.00 | 0.00 | 0.00 | 1024.4 | |
| 20260507185325 | 0 | 16 | 7.0 | 12.2 | 0.00 | 0.00 | 0.00 | 1024.6 | |
| 20260507184825 | 0 | 8 | 7.0 | 11.3 | 0.00 | 0.00 | 0.00 | 1024.2 | |
| 20260507184325 | 0 | 15 | 7.0 | 13.0 | 0.00 | 0.00 | 0.00 | 1024.8 | |
| 20260507183825 | 0 | 6 | 6.1 | 13.0 | 0.00 | 0.00 | 0.00 | 1024.6 | |
| 20260507183325 | 0 | 4 | 7.0 | 13.0 | 0.00 | 0.00 | 0.00 | 1024.6 | |
| 20260507182825 | 0 | 18 | 7.0 | 13.0 | 0.00 | 0.00 | 0.00 | 1024.8 | |
| 20260507182325 | 0 | 7 | 7.0 | 13.9 | 0.00 | 0.00 | 0.00 | 1024.7 | |
| 20260507181825 | 0 | 15 | 7.0 | 13.9 | 0.00 | 0.00 | 0.00 | 1025.0 | |
| 20260507181324 | 0 | 8 | 7.8 | 13.0 | 0.00 | 0.00 | 0.00 | 1025.1 | |
| 20260507180824 | 0 | 8 | 6.1 | 12.2 | 0.00 | 0.00 | 0.00 | 1025.0 | |
| 20260507180324 | 0 | 14 | 7.0 | 11.3 | 0.00 | 0.00 | 0.00 | 1024.9 | |
| 20260507175309 | 0 | 1 | 7.0 | 12.2 | 0.00 | 0.00 | 0.00 | 1025.2 | |
| 20260507174809 | 0 | 8 | 7.0 | 11.3 | 0.00 | 0.00 | 0.00 | 1025.5 | |
| 20260507174309 | 0 | 18 | 4.3 | 11.3 | 0.00 | 0.00 | 0.00 | 1025.4 | |
| 20260507173253 | 0 | 3 | 6.1 | 11.3 | 0.00 | 0.00 | 0.00 | 1025.5 | |
| 20260507172753 | 0 | 359 | 7.0 | 11.3 | 0.00 | 0.00 | 0.00 | 1025.6 | |
| 20260507172253 | 0 | 359 | 6.1 | 11.3 | 0.00 | 0.00 | 0.00 | 1025.4 | |
| 20260507171753 | 0 | 5 | 5.2 | 11.3 | 0.00 | 0.00 | 0.00 | 1025.5 | |
| 20260507171253 | 0 | 357 | 5.2 | 11.3 | 0.00 | 0.00 | 0.00 | 1025.4 | |
| 20260507170752 | 0 | 6 | 6.1 | 11.3 | 0.00 | 0.00 | 0.00 | 1025.9 | |
| 20260507170252 | 0 | 10 | 5.2 | 11.3 | 0.00 | 0.00 | 0.00 | 1025.7 | |
| 20260507165236 | 0 | 52 | 3.5 | 10.4 | 0.00 | 0.00 | 0.00 | 1025.9 | |
| 20260507164735 | 0 | 19 | 5.2 | 11.3 | 0.00 | 0.00 | 0.00 | 1026.2 | |
| 20260507163719 | 0 | 21 | 6.1 | 11.3 | 0.00 | 0.00 | 0.00 | 1025.8 | |
| 20260507163219 | 0 | 29 | 5.2 | 9.6 | 0.00 | 0.00 | 0.00 | 1026.2 | |
| 20260507162204 | 0 | 78 | 2.6 | 9.6 | 0.00 | 0.00 | 0.00 | 1026.4 | |
| 20260507161704 | 0 | 45 | 3.5 | 10.4 | 0.00 | 0.00 | 0.00 | 1026.4 | |
| 20260507161204 | 0 | 79 | 4.3 | 10.4 | 0.00 | 0.00 | 0.00 | 1026.5 | |
| 20260507160149 | 0 | 81 | 1.7 | 11.3 | 0.00 | 0.00 | 0.00 | 1026.7 | |
| 20260507155649 | 0 | 103 | 5.2 | 11.3 | 0.00 | 0.00 | 0.00 | 1026.5 | |
| 20260507155148 | 0 | 108 | 4.3 | 12.2 | 0.00 | 0.00 | 0.00 | 1026.8 | |
| 20260507154648 | 0 | 50 | 3.5 | 12.2 | 0.00 | 0.00 | 0.00 | 1026.6 | |
| 20260507154148 | 0 | 16 | 7.0 | 13.0 | 0.00 | 0.00 | 0.00 | 1026.4 | |
| 20260507153647 | 0 | 16 | 6.1 | 13.0 | 0.00 | 0.00 | 0.00 | 1026.4 | |
| 20260507152632 | 0 | 89 | 4.3 | 10.4 | 0.00 | 0.00 | 0.00 | 1026.5 | |
| 20260507151616 | 0 | 70 | 4.3 | 14.8 | 0.00 | 0.00 | 0.00 | 1026.7 | |
| 20260507151116 | 0 | 95 | 5.2 | 14.8 | 0.00 | 0.00 | 0.00 | 1026.6 | |
| 20260507150616 | 0 | 130 | 7.8 | 14.8 | 0.00 | 0.00 | 0.00 | 1026.4 | |
| 20260507150115 | 0 | 129 | 8.7 | 14.8 | 0.00 | 0.00 | 0.00 | 1026.7 | |
| 20260507145059 | 0 | 120 | 7.0 | 14.8 | 0.00 | 0.00 | 0.00 | 1026.6 | |
| 20260507144558 | 0 | 128 | 9.6 | 13.9 | 0.00 | 0.00 | 0.00 | 1026.5 | |
| 20260507144058 | 0 | 130 | 7.0 | 13.9 | 0.00 | 0.00 | 0.00 | 1026.5 | |
| 20260507143557 | 0 | 126 | 6.1 | 13.0 | 0.00 | 0.00 | 0.00 | 1026.7 | |
| 20260507143057 | 0 | 83 | 7.0 | 12.2 | 0.00 | 0.00 | 0.00 | 1026.6 | |
| 20260507142557 | 0 | 120 | 7.8 | 13.0 | 0.00 | 0.00 | 0.00 | 1026.4 | |
| 20260507142057 | 0 | 126 | 7.8 | 13.9 | 0.00 | 0.00 | 0.00 | 1026.7 | |
| 20260507141556 | 0 | 116 | 6.1 | 13.9 | 0.00 | 0.00 | 0.00 | 1026.9 | |
| 20260507140540 | 0 | 116 | 7.8 | 14.8 | 0.00 | 0.00 | 0.00 | 1026.6 | |
| 20260507140040 | 0 | 105 | 6.1 | 13.0 | 0.00 | 0.00 | 0.00 | 1026.6 | |
| 20260507135540 | 0 | 126 | 8.7 | 13.0 | 0.00 | 0.00 | 0.00 | 1026.6 | |
| 20260507135040 | 0 | 122 | 7.8 | 16.5 | 0.00 | 0.00 | 0.00 | 1026.5 | |
| 20260507134540 | 0 | 117 | 11.3 | 16.5 | 0.00 | 0.00 | 0.00 | 1026.6 | |
| 20260507133525 | 0 | 121 | 7.0 | 13.9 | 0.00 | 0.00 | 0.00 | 1026.7 | |
| 20260507133025 | 0 | 92 | 7.0 | 13.9 | 0.00 | 0.00 | 0.00 | 1026.7 | |
| 20260507132525 | 0 | 130 | 9.6 | 14.8 | 0.00 | 0.00 | 0.00 | 1026.8 | |
| 20260507132025 | 0 | 120 | 7.0 | 14.8 | 0.00 | 0.00 | 0.00 | 1026.6 | |
| 20260507131525 | 0 | 102 | 7.0 | 13.0 | 0.00 | 0.00 | 0.00 | 1026.9 | |
| 20260507131025 | 0 | 122 | 8.7 | 13.9 | 0.00 | 0.00 | 0.00 | 1026.6 | |
| 20260507130525 | 0 | 125 | 9.6 | 13.9 | 0.00 | 0.00 | 0.00 | 1026.8 | |
| 20260507125509 | 0 | 126 | 7.8 | 13.0 | 0.00 | 0.00 | 0.00 | 1026.8 | |
| 20260507125011 | 0 | 99 | 5.2 | 14.8 | 0.00 | 0.00 | 0.00 | 1026.6 | |
| 20260507123954 | 0 | 102 | 7.0 | 14.8 | 0.00 | 0.00 | 0.00 | 1027.0 | |
| 20260507123454 | 0 | 109 | 8.7 | 14.8 | 0.00 | 0.00 | 0.00 | 1026.6 | |
| 20260507121924 | 0 | 122 | 7.0 | 11.3 | 0.00 | 0.00 | 0.00 | 1026.5 | |
| 20260507121424 | 0 | 118 | 6.1 | 11.3 | 0.00 | 0.00 | 0.00 | 1026.5 | |
| 20260507120924 | 0 | 116 | 3.5 | 10.4 | 0.00 | 0.00 | 0.00 | 1026.6 | |
| 20260507120424 | 0 | 49 | 2.6 | 10.4 | 0.00 | 0.00 | 0.00 | 1026.5 | |
| 20260507115924 | 0 | 55 | 1.7 | 10.4 | 0.00 | 0.00 | 0.00 | 1026.5 | |
| 20260507114909 | 0 | 86 | 4.3 | 10.4 | 0.00 | 0.00 | 0.00 | 1026.7 | |
| 20260507114409 | 0 | 99 | 3.5 | 10.4 | 0.00 | 0.00 | 0.00 | 1026.7 | |
| 20260507113909 | 0 | 112 | 5.2 | 11.3 | 0.00 | 0.00 | 0.00 | 1026.5 | |
| 20260507113409 | 0 | 72 | 2.6 | 11.3 | 0.00 | 0.00 | 0.00 | 1026.7 | |
| 20260507112354 | 0 | 125 | 5.2 | 9.6 | 0.00 | 0.00 | 0.00 | 1026.6 | |
| 20260507111854 | 0 | 95 | 3.5 | 9.6 | 0.00 | 0.00 | 0.00 | 1026.6 | |
| 20260507111353 | 0 | 70 | 2.6 | 12.2 | 0.00 | 0.00 | 0.00 | 1026.2 | |
| 20260507110853 | 0 | 97 | 5.2 | 12.2 | 0.00 | 0.00 | 0.00 | 1026.3 | |
| 20260507105838 | 0 | 122 | 5.2 | 12.2 | 0.00 | 0.00 | 0.00 | 1026.4 | |
| 20260507105338 | 0 | 115 | 7.8 | 12.2 | 0.00 | 0.00 | 0.00 | 1026.6 | |
| 20260507104838 | 0 | 115 | 7.0 | 10.4 | 0.00 | 0.00 | 0.00 | 1026.4 | |
| 20260507104337 | 0 | 113 | 4.3 | 10.4 | 0.00 | 0.00 | 0.00 | 1026.3 | |
| 20260507103322 | 0 | 99 | 2.6 | 10.4 | 0.00 | 0.00 | 0.00 | 1026.3 | |
| 20260507102821 | 0 | 99 | 4.3 | 10.4 | 0.00 | 0.00 | 0.00 | 1026.1 | |
| 20260507102321 | 0 | 98 | 3.5 | 10.4 | 0.00 | 0.00 | 0.00 | 1026.1 | |
| 20260507101822 | 0 | 81 | 3.5 | 10.4 | 0.00 | 0.00 | 0.00 | 1026.0 | |
| 20260507101321 | 0 | 96 | 1.7 | 10.4 | 0.00 | 0.00 | 0.00 | 1026.2 | |
| 20260507100822 | 0 | 107 | 5.2 | 10.4 | 0.00 | 0.00 | 0.00 | 1026.0 | |
| 20260507100321 | 0 | 111 | 3.5 | 10.4 | 0.00 | 0.00 | 0.00 | 1025.9 | |
| 20260507095821 | 0 | 109 | 3.5 | 10.4 | 0.00 | 0.00 | 0.00 | 1026.1 | |
| 20260507094806 | 0 | 60 | 3.5 | 10.4 | 0.00 | 0.00 | 0.00 | 1026.1 | |
| 20260507094306 | 0 | 84 | 3.5 | 10.4 | 0.00 | 0.00 | 0.00 | 1026.1 | |
| 20260507093807 | 0 | 98 | 3.5 | 12.2 | 0.00 | 0.00 | 0.00 | 1025.9 | |
| 20260507093306 | 0 | 111 | 5.2 | 12.2 | 0.00 | 0.00 | 0.00 | 1025.7 | |
| 20260507092805 | 0 | 105 | 6.1 | 12.2 | 0.00 | 0.00 | 0.00 | 1025.9 | |
| 20260507092307 | 0 | 107 | 4.3 | 10.4 | 0.00 | 0.00 | 0.00 | 1025.5 | |
| 20260507091250 | 0 | 73 | 2.6 | 10.4 | 0.00 | 0.00 | 0.00 | 1025.6 | |
| 20260507090750 | 0 | 79 | 3.5 | 10.4 | 0.00 | 0.00 | 0.00 | 1025.7 | |
| 20260507090250 | 0 | 69 | 3.5 | 10.4 | 0.00 | 0.00 | 0.00 | 1025.5 | |
| 20260507085750 | 0 | 87 | 3.5 | 10.4 | 0.00 | 0.00 | 0.00 | 1025.3 | |
| 20260507085249 | 0 | 97 | 3.5 | 10.4 | 0.00 | 0.00 | 0.00 | 1025.6 | |
| 20260507084233 | 0 | 108 | 6.1 | 10.4 | 0.00 | 0.00 | 0.00 | 1025.6 | |
| 20260507083733 | 0 | 105 | 5.2 | 10.4 | 0.00 | 0.00 | 0.00 | 1025.5 | |
| 20260507083234 | 0 | 101 | 3.5 | 10.4 | 0.00 | 0.00 | 0.00 | 1025.2 | |
| 20260507082734 | 0 | 110 | 6.1 | 10.4 | 0.00 | 0.00 | 0.00 | 1025.6 | |
| 20260507082234 | 0 | 79 | 4.3 | 9.6 | 0.00 | 0.00 | 0.00 | 1025.6 | |
| 20260507081218 | 0 | 76 | 4.3 | 9.6 | 0.00 | 0.00 | 0.00 | 1025.3 | |
| 20260507080718 | 0 | 66 | 2.6 | 9.6 | 0.00 | 0.00 | 0.00 | 1025.2 | |
| 20260507080218 | 0 | 64 | 2.6 | 9.6 | 0.00 | 0.00 | 0.00 | 1025.6 | |
| 20260507075718 | 0 | 81 | 4.3 | 9.6 | 0.00 | 0.00 | 0.00 | 1025.3 | |
| 20260507075217 | 0 | 77 | 1.7 | 9.6 | 0.00 | 0.00 | 0.00 | 1025.4 | |
| 20260507074717 | 0 | 103 | 4.3 | 9.6 | 0.00 | 0.00 | 0.00 | 1025.2 | |
| 20260507074216 | 0 | 71 | 3.5 | 9.6 | 0.00 | 0.00 | 0.00 | 1025.4 | |
| 20260507073716 | 0 | 93 | 2.6 | 9.6 | 0.00 | 0.00 | 0.00 | 1025.6 | |
| 20260507073216 | 0 | 86 | 2.6 | 9.6 | 0.00 | 0.00 | 0.00 | 1025.7 | |
| 20260507072715 | 0 | 87 | 2.6 | 10.4 | 0.00 | 0.00 | 0.00 | 1025.5 | |
| 20260507071659 | 0 | 91 | 4.3 | 10.4 | 0.00 | 0.00 | 0.00 | 1025.4 | |
| 20260507071200 | 0 | 96 | 6.1 | 10.4 | 0.00 | 0.00 | 0.00 | 1025.3 | |
| 20260507070700 | 0 | 100 | 7.0 | 10.4 | 0.00 | 0.00 | 0.00 | 1025.8 | |
| 20260507070200 | 0 | 82 | 4.3 | 10.4 | 0.00 | 0.00 | 0.00 | 1025.5 | |
| 20260507065700 | 0 | 95 | 3.5 | 10.4 | 0.00 | 0.00 | 0.00 | 1025.8 | |
| 20260507065200 | 0 | 104 | 4.3 | 9.6 | 0.00 | 0.00 | 0.00 | 1025.7 | |
| 20260507064700 | 0 | 94 | 4.3 | 9.6 | 0.00 | 0.00 | 0.00 | 1025.6 | |
| 20260507064200 | 0 | 96 | 5.2 | 9.6 | 0.00 | 0.00 | 0.00 | 1025.8 | |
| 20260507063700 | 0 | 75 | 3.5 | 9.6 | 0.00 | 0.00 | 0.00 | 1025.6 | |
| 20260507062644 | 0 | 100 | 4.3 | 9.6 | 0.00 | 0.00 | 0.00 | 1025.8 | |
| 20260507062143 | 0 | 114 | 6.1 | 9.6 | 0.00 | 0.00 | 0.00 | 1025.9 | |
| 20260507061128 | 0 | 101 | 2.6 | 9.6 | 0.00 | 0.00 | 0.00 | 1026.2 | |
| 20260507060628 | 0 | 73 | 1.7 | 9.6 | 0.00 | 0.00 | 0.00 | 1026.2 | |
| 20260507060128 | 0 | 88 | 2.6 | 9.6 | 0.00 | 0.00 | 0.00 | 1026.2 | |
| 20260507055627 | 0 | 92 | 2.6 | 9.6 | 0.00 | 0.00 | 0.00 | 1026.0 | |
| 20260507055127 | 0 | 88 | 2.6 | 9.6 | 0.00 | 0.00 | 0.00 | 1026.3 | |
| 20260507054627 | 0 | 102 | 3.5 | 9.6 | 0.00 | 0.00 | 0.00 | 1026.5 | |
| 20260507054127 | 0 | 102 | 3.5 | 10.4 | 0.00 | 0.00 | 0.00 | 1026.6 | |
| 20260507053627 | 0 | 74 | 3.5 | 10.4 | 0.00 | 0.00 | 0.00 | 1026.2 | |
| 20260507051542 | 0 | 109 | 7.0 | 12.2 | 0.00 | 0.00 | 0.00 | 1026.7 | |
| 20260507051042 | 0 | 95 | 4.3 | 10.4 | 0.00 | 0.00 | 0.00 | 1026.4 | |
| 20260507050542 | 0 | 93 | 5.2 | 10.4 | 0.00 | 0.00 | 0.00 | 1026.6 | |
| 20260507045527 | 0 | 18 | 4.3 | 10.4 | 0.00 | 0.00 | 0.00 | 1026.6 | |
| 20260507045026 | 0 | 86 | 4.3 | 10.4 | 0.00 | 0.00 | 0.00 | 1027.3 | |
| 20260507044526 | 0 | 92 | 3.5 | 10.4 | 0.00 | 0.00 | 0.00 | 1027.2 | |
| 20260507044026 | 0 | 86 | 2.6 | 10.4 | 0.00 | 0.00 | 0.00 | 1026.9 | |
| 20260507043526 | 0 | 90 | 2.6 | 10.4 | 0.00 | 0.00 | 0.00 | 1027.3 | |
| 20260507043026 | 0 | 72 | 5.2 | 10.4 | 0.00 | 0.00 | 0.00 | 1027.0 | |
| 20260507042527 | 0 | 95 | 3.5 | 10.4 | 0.00 | 0.00 | 0.00 | 1027.3 | |
| 20260507042026 | 0 | 57 | 3.5 | 10.4 | 0.00 | 0.00 | 0.00 | 1027.4 | |
| 20260507041526 | 0 | 38 | 2.6 | 11.3 | 0.00 | 0.00 | 0.00 | 1027.2 | |
| 20260507041026 | 0 | 54 | 3.5 | 11.3 | 0.00 | 0.00 | 0.00 | 1027.4 | |
| 20260507035456 | 0 | 66 | 2.6 | 11.3 | 0.00 | 0.00 | 0.00 | 1027.3 | |
| 20260507034956 | 0 | 77 | 2.6 | 11.3 | 0.00 | 0.00 | 0.00 | 1027.6 | |
| 20260507034456 | 0 | 78 | 2.6 | 11.3 | 0.00 | 0.00 | 0.00 | 1027.6 | |
| 20260507033441 | 0 | 88 | 4.3 | 12.2 | 0.00 | 0.00 | 0.00 | 1027.6 | |
| 20260507032426 | 0 | 106 | 7.8 | 12.2 | 0.00 | 0.00 | 0.00 | 1027.7 | |
| 20260507031926 | 0 | 96 | 7.0 | 12.2 | 0.00 | 0.00 | 0.00 | 1027.6 | |
| 20260507031426 | 0 | 103 | 5.2 | 11.3 | 0.00 | 0.00 | 0.00 | 1027.7 | |
| 20260507030926 | 0 | 97 | 5.2 | 11.3 | 0.00 | 0.00 | 0.00 | 1027.6 | |
| 20260507030426 | 0 | 90 | 4.3 | 13.0 | 0.00 | 0.00 | 0.00 | 1027.7 | |
| 20260507025926 | 0 | 94 | 5.2 | 13.0 | 0.00 | 0.00 | 0.00 | 1028.1 | |
| 20260507025426 | 0 | 98 | 5.2 | 13.0 | 0.00 | 0.00 | 0.00 | 1027.9 | |
| 20260507024926 | 0 | 66 | 5.2 | 13.0 | 0.00 | 0.00 | 0.00 | 1027.9 | |
| 20260507024426 | 0 | 109 | 7.0 | 13.0 | 0.00 | 0.00 | 0.00 | 1028.2 | |
| 20260507023926 | 0 | 100 | 4.3 | 10.4 | 0.00 | 0.00 | 0.00 | 1028.1 | |
| 20260507023426 | 0 | 95 | 2.6 | 9.6 | 0.00 | 0.00 | 0.00 | 1027.8 | |
| 20260507022926 | 0 | 37 | 3.5 | 9.6 | 0.00 | 0.00 | 0.00 | 1027.7 | |
| 20260507021910 | 0 | 97 | 2.6 | 9.6 | 0.00 | 0.00 | 0.00 | 1027.9 | |
| 20260507021410 | 0 | 29 | 5.2 | 9.6 | 0.00 | 0.00 | 0.00 | 1027.5 | |
| 20260507020910 | 0 | 78 | 3.5 | 9.6 | 0.00 | 0.00 | 0.00 | 1028.0 | |
| 20260507020410 | 0 | 46 | 3.5 | 9.6 | 0.00 | 0.00 | 0.00 | 1027.7 | |
| 20260507015910 | 0 | 85 | 2.6 | 9.6 | 0.00 | 0.00 | 0.00 | 1027.9 | |
| 20260507015410 | 0 | 79 | 4.3 | 10.4 | 0.00 | 0.00 | 0.00 | 1027.9 | |
| 20260507014910 | 0 | 38 | 5.2 | 10.4 | 0.00 | 0.00 | 0.00 | 1027.6 | |
| 20260507014410 | 0 | 90 | 5.2 | 10.4 | 0.00 | 0.00 | 0.00 | 1027.7 | |
| 20260507013910 | 0 | 79 | 5.2 | 10.4 | 0.00 | 0.00 | 0.00 | 1027.6 | |
| 20260507013410 | 0 | 72 | 5.2 | 10.4 | 0.00 | 0.00 | 0.00 | 1027.6 | |
| 20260507012910 | 0 | 81 | 3.5 | 9.6 | 0.00 | 0.00 | 0.00 | 1027.5 | |
| 20260507012410 | 0 | 61 | 3.5 | 9.6 | 0.00 | 0.00 | 0.00 | 1027.8 | |
| 20260507011355 | 0 | 79 | 3.5 | 9.6 | 0.00 | 0.00 | 0.00 | 1027.9 | |
| 20260507010340 | 0 | 41 | 1.7 | 9.6 | 0.00 | 0.00 | 0.00 | 1027.4 | |
| 20260507005840 | 0 | 58 | 2.6 | 9.6 | 0.00 | 0.00 | 0.00 | 1027.1 | |
| 20260507005340 | 0 | 82 | 3.5 | 9.6 | 0.00 | 0.00 | 0.00 | 1027.2 | |
| 20260507004839 | 0 | 71 | 4.3 | 9.6 | 0.00 | 0.00 | 0.00 | 1027.4 | |
| 20260507004339 | 0 | 91 | 5.2 | 9.6 | 0.00 | 0.00 | 0.00 | 1027.1 | |
| 20260507003839 | 0 | 102 | 2.6 | 9.6 | 0.00 | 0.00 | 0.00 | 1027.4 | |
| 20260507002824 | 0 | 71 | 3.5 | 12.2 | 0.00 | 0.00 | 0.00 | 1027.1 | |
| 20260507002323 | 0 | 87 | 4.3 | 13.0 | 0.00 | 0.00 | 0.00 | 1027.0 | |
| 20260507001822 | 0 | 84 | 5.2 | 13.0 | 0.00 | 0.00 | 0.00 | 1027.0 | |
| 20260507001322 | 0 | 106 | 7.8 | 12.2 | 0.00 | 0.00 | 0.00 | 1026.9 | |
| 20260507000822 | 0 | 101 | 7.0 | 10.4 | 0.00 | 0.00 | 0.00 | 1027.2 | |
| 20260507000322 | 0 | 101 | 4.3 | 10.4 | 0.00 | 0.00 | 0.00 | 1027.0 | |
| 20260506235822 | 0 | 91 | 5.2 | 10.4 | 0.00 | 0.00 | 0.00 | 1026.8 | |
| 20260506235322 | 0 | 85 | 5.2 | 12.2 | 0.00 | 0.00 | 0.00 | 1026.8 | |
| 20260506234305 | 0 | 87 | 4.3 | 12.2 | 0.00 | 0.00 | 0.00 | 1026.6 | |
| 20260506233805 | 0 | 121 | 6.1 | 12.2 | 0.00 | 0.00 | 0.00 | 1026.4 | |
| 20260506233305 | 0 | 65 | 3.5 | 12.2 | 0.00 | 0.00 | 0.00 | 1026.5 | |
| 20260506232805 | 0 | 87 | 6.1 | 12.2 | 0.00 | 0.00 | 0.00 | 1026.4 | |
| 20260506232306 | 0 | 96 | 5.2 | 12.2 | 0.00 | 0.00 | 0.00 | 1026.4 | |
| 20260506231805 | 0 | 102 | 6.1 | 11.3 | 0.00 | 0.00 | 0.00 | 1026.1 | |
| 20260506231305 | 0 | 112 | 5.2 | 11.3 | 0.00 | 0.00 | 0.00 | 1026.2 | |
| 20260506230804 | 0 | 85 | 4.3 | 11.3 | 0.00 | 0.00 | 0.00 | 1026.1 | |
| 20260506230304 | 0 | 84 | 6.1 | 10.4 | 0.00 | 0.00 | 0.00 | 1026.3 | |
| 20260506225803 | 0 | 114 | 7.8 | 10.4 | 0.00 | 0.00 | 0.00 | 1026.3 | |
| 20260506225305 | 0 | 105 | 7.0 | 10.4 | 0.00 | 0.00 | 0.00 | 1026.2 | |
| 20260506224247 | 0 | 75 | 4.3 | 11.3 | 0.00 | 0.00 | 0.00 | 1025.8 | |
| 20260506223747 | 0 | 108 | 7.0 | 11.3 | 0.00 | 0.00 | 0.00 | 1025.7 | |
| 20260506223247 | 0 | 91 | 5.2 | 11.3 | 0.00 | 0.00 | 0.00 | 1025.7 | |
| 20260506222232 | 0 | 80 | 6.1 | 11.3 | 0.00 | 0.00 | 0.00 | 1025.8 | |
| 20260506221732 | 0 | 97 | 7.0 | 13.0 | 0.00 | 0.00 | 0.00 | 1025.5 | |
| 20260506220716 | 0 | 52 | 5.2 | 13.9 | 0.00 | 0.00 | 0.00 | 1025.5 | |
| 20260506215144 | 0 | 102 | 6.1 | 12.2 | 0.00 | 0.00 | 0.00 | 1025.8 | |
| 20260506214644 | 0 | 83 | 4.3 | 12.2 | 0.00 | 0.00 | 0.00 | 1025.4 | |
| 20260506213627 | 0 | 103 | 7.0 | 14.8 | 0.00 | 0.00 | 0.00 | 1025.3 | |
| 20260506213127 | 0 | 105 | 6.1 | 11.3 | 0.00 | 0.00 | 0.00 | 1025.5 | |
| 20260506212111 | 0 | 87 | 7.0 | 13.9 | 0.00 | 0.00 | 0.00 | 1025.3 | |
| 20260506211611 | 0 | 86 | 5.2 | 16.5 | 0.00 | 0.00 | 0.00 | 1025.5 | |
| 20260506211111 | 0 | 88 | 7.0 | 16.5 | 0.00 | 0.00 | 0.00 | 1025.2 | |
| 20260506210056 | 0 | 126 | 7.8 | 13.0 | 0.00 | 0.00 | 0.00 | 1025.3 | |
| 20260506205556 | 0 | 110 | 7.8 | 13.9 | 0.00 | 0.00 | 0.00 | 1025.3 | |
| 20260506205056 | 0 | 119 | 7.8 | 17.4 | 0.00 | 0.00 | 0.00 | 1025.5 | |
| 20260506204556 | 0 | 117 | 8.7 | 13.9 | 0.00 | 0.00 | 0.00 | 1025.3 | |
| 20260506204056 | 0 | 109 | 8.7 | 14.8 | 0.00 | 0.00 | 0.00 | 1025.1 | |
| 20260506203556 | 0 | 104 | 5.2 | 14.8 | 0.00 | 0.00 | 0.00 | 1025.1 | |
| 20260506203056 | 0 | 90 | 7.0 | 13.0 | 0.00 | 0.00 | 0.00 | 1025.1 | |
| 20260506202556 | 0 | 111 | 7.0 | 13.0 | 0.00 | 0.00 | 0.00 | 1025.1 | |
| 20260506202056 | 0 | 111 | 7.0 | 16.5 | 0.00 | 0.00 | 0.00 | 1025.2 | |
| 20260506201556 | 0 | 113 | 7.0 | 16.5 | 0.00 | 0.00 | 0.00 | 1025.2 | |
| 20260506201057 | 0 | 123 | 7.8 | 16.5 | 0.00 | 0.00 | 0.00 | 1025.3 | |
| 20260506200556 | 0 | 112 | 9.6 | 16.5 | 0.00 | 0.00 | 0.00 | 1025.3 | |
| 20260506200057 | 0 | 114 | 10.4 | 14.8 | 0.00 | 0.00 | 0.00 | 1025.2 | |
| 20260506195556 | 0 | 105 | 7.0 | 13.9 | 0.00 | 0.00 | 0.00 | 1025.5 | |
| 20260506194540 | 0 | 104 | 8.7 | 14.8 | 0.00 | 0.00 | 0.00 | 1025.4 | |
| 20260506193525 | 0 | 108 | 9.6 | 16.5 | 0.00 | 0.00 | 0.00 | 1025.6 | |
| 20260506193025 | 0 | 108 | 7.0 | 16.5 | 0.00 | 0.00 | 0.00 | 1025.6 | |
| 20260506192525 | 0 | 114 | 8.7 | 13.9 | 0.00 | 0.00 | 0.00 | 1025.6 | |
| 20260506192026 | 0 | 108 | 7.0 | 13.9 | 0.00 | 0.00 | 0.00 | 1025.6 | |
| 20260506191526 | 0 | 119 | 7.8 | 13.9 | 0.00 | 0.00 | 0.00 | 1025.7 | |
| 20260506191025 | 0 | 120 | 8.7 | 13.0 | 0.00 | 0.00 | 0.00 | 1025.7 | |
| 20260506190524 | 0 | 113 | 7.8 | 13.9 | 0.00 | 0.00 | 0.00 | 1025.7 |